Location: Erdweis
(48.5167°N, 15.3500°E)
Time: 12:52:31
(UTC+00:00)

USA 234 - Pass Details

Date: 19 January 2021
Orbit: 1100 x 1107 km, 123.0° (Epoch: 01 March)

Event Time Altitude Azimuth Distance (km) Brightness Sun altitude
Exits shadow 17:37:26 31° 74° (ENE) 1,821 3.8 -19.5°
Maximum altitude 17:40:19 52° 17° (NNE) 1,354 3.5 -20.0°
Drops below altitude 10° 17:46:37 10° 304° (WNW) 2,969 6.2 -21.0°
Sets 17:49:10 0° 299° (WNW) 3,929 7.0 -21.4°
